Hourly Weather Roundup
Issued by NWS Central Illinois

Home | Current Version | Previous Version | Text Only | Print | Product List | Glossary On
Versions: 1 2 3 4 5 6 7 8 9 10 11 12 13 14 15 16 17 18 19 20 21 22 23 24 25 26 27 28 29 30 31 32 33 34 35 36 37 38 39 40 41 42 43 44 45 46 47 48 49 50
000
NZUS43 KILX 211010
HWRILX

AREA WEATHER ROUNDUP
NATIONAL WEATHER SERVICE, LINCOLN IL
400 AM CST SAT JAN 21 2017


CITY           SKY/WX    TMP DP  RH WIND       PRES   REMARKS
BLOOMINGTON    CLEAR     46  46 100 S12       29.55F
CHAMPAIGN      CLEAR     49  47  93 S13       29.58F
DANVILLE       CLEAR     50  49  97 S9        29.57F
DECATUR        CLEAR     49  49 100 S12       29.56F
EFFINGHAM      CLEAR     50  50 100 SE6       29.62F
FLORA          PTCLDY    48  47  97 S8        29.62F
GALESBURG      FOG       43  43 100 SE3       29.47F VSB 1/2
JACKSONVILLE   CLEAR     51  47  88 S12G20    29.51F
LACON          CLEAR     47  47 100 S7        29.50F
LAWRENCEVILLE  PTCLDY    49  49 100 S8        29.65F
LITCHFIELD     CLEAR     49  47  95 S12       29.56F
$$


CITY           SKY/WX    TMP DP  RH WIND       PRES   REMARKS
LINCOLN        CLEAR     48  48 100 S10       29.54F
MACOMB         CLEAR     45  45 100 S8        29.49F FOG
MATTOON        CLEAR     50  48  93 S9        29.60F
MT CARMEL AP   CLOUDY    48  47  95 S5        29.65F
OLNEY-NOBLE AP PTCLDY    48  48 100 S6        29.63F
PARIS          PTCLDY    49  49  99 S9        29.62S
PEORIA         CLEAR     46  46 100 S7        29.51F FOG
PONTIAC        CLEAR     47  47 100 S13       29.54F FOG
RANTOUL        FOG       47  47  99 SE7       29.58F VSB 1/2
SPRINGFIELD    CLEAR     53  49  86 S16       29.54F
TAYLORVILLE    CLEAR     50  48  93 S8        29.56F
$$

...REGIONAL REPORTS...


CITY           SKY/WX    TMP DP  RH WIND       PRES   REMARKS
CHICAGO O`HARE CLOUDY    46  46 100 S5        29.53F FOG
KANKAKEE       CLEAR     50  49  97 S10       29.57F
MOLINE         PTCLDY    47  45  93 S9        29.44F FOG
MOUNT STERLING CLEAR     44  44 100 SE8       29.47F FOG
MOUNT VERNON   PTCLDY    48  47  96 CALM      29.62F
PITTSFIELD     CLEAR     50  46  85 S10       29.50F
QUINCY         CLEAR     50  45  83 S9        29.46F
ROCKFORD       FOG       44  43  96 SE6       29.53F VSB 1/2
$$


CITY           SKY/WX    TMP DP  RH WIND       PRES   REMARKS
BURLINGTON     CLEAR     46  45  96 S10       29.44F
CEDAR RAPIDS   FOG       43  43 100 SE8       29.41F VSB 1/4
DES MOINES     FOG       43  42  97 S7        29.39F VSB 1/4
KIRKSVILLE     CLEAR     37  37 100 S8        29.42F FOG     WCI  31
OTTUMWA        CLOUDY    45  44  97 S13       29.40F FOG
ST LOUIS       PTCLDY    53  47  79 S10       29.54F
$$


CITY           SKY/WX    TMP DP  RH WIND       PRES   REMARKS
TERRE HAUTE    MOCLDY    50  48  93 S8        29.64F
EVANSVILLE     MOCLDY    49  48  97 CALM      29.67F FOG
INDIANAPOLIS   PTCLDY    49  47  93 SE10      29.65F
LAFAYETTE      PTCLDY    50  49  96 SE5       29.61F
MADISON        FOG       36  36 100 E5        29.53F VSB 1/4 WCI  32
MILWAUKEE      FOG       39  37  92 E5        29.56F VSB 1/8
$$






USA.gov is the U.S. government's official web portal to all federal, state and local government web resources and services.